Location: Unspecified
(0.0000°N, 0.0000°E)
Time: 12:07:36
(UTC+00:00)

STARLINK 1022 - Pass Details

Date: 11 December 2019
Orbit: 449 x 451 km, 53.0° (Epoch: 11 December)

Event Time Altitude Azimuth Distance (km) Brightness Sun altitude
Rises 19:31:54 0° 197° (SSW) 2,443 7.5 -22.6°
Reaches altitude 10° 19:34:13 10° 185° (S) 1,570 6.3 -23.1°
Enters shadow 19:35:36 19° 169° (S) 1,128 5.3 -23.4°
